When you browse on this site, cookies collect data to enhance your experience and personalize the content and advertising you see.
Visit our Privacy Policy to learn more. By continuing to use the site, you agree to this use of cookies and data.
  • en France
  • Liste des pays
  • À 7 jours
  • Température de l'eau
  • Carte météo
  • Widgets météo
  • user-avatar
    Se connecter

    Météo par heure à Florianópolis

    Ce jour, 15 Novembre, Vendredi

    Heure Température Précipitation Vent Pression Humidité
    00:00 +22°C° 0 mm 3 m/s 754 mmHg 90%
    01:00 +21°C° 0 mm 3 m/s 754 mmHg 91%
    02:00 +21°C° 0 mm 3 m/s 754 mmHg 91%
    03:00 +21°C° 0 mm 3 m/s 754 mmHg 91%
    04:00 +20°C° 0 mm 3 m/s 754 mmHg 89%
    05:00 +20°C° 0 mm 3 m/s 754 mmHg 87%
    06:00 +20°C° 0 mm 4 m/s 755 mmHg 86%
    07:00 +22°C° 0 mm 4 m/s 755 mmHg 74%
    08:00 +25°C° 0 mm 4 m/s 756 mmHg 62%
    09:00 +26°C° 0 mm 4 m/s 756 mmHg 50%
    10:00 +27°C° 0 mm 5 m/s 756 mmHg 49%
    11:00 +28°C° 0 mm 5 m/s 756 mmHg 48%
    12:00 +29°C° 0 mm 6 m/s 756 mmHg 46%
    13:00 +29°C° 0 mm 6 m/s 756 mmHg 48%
    14:00 +29°C° 0 mm 7 m/s 755 mmHg 49%
    15:00 +28°C° 0 mm 7 m/s 755 mmHg 50%
    16:00 +27°C° 0 mm 7 m/s 755 mmHg 57%
    17:00 +24°C° 0 mm 7 m/s 756 mmHg 64%
    18:00 +23°C° 0 mm 7 m/s 756 mmHg 72%
    19:00 +22°C° 0 mm 6 m/s 757 mmHg 72%
    20:00 +21°C° 0 mm 6 m/s 757 mmHg 72%
    21:00 +21°C° 0 mm 5 m/s 758 mmHg 73%
    22:00 +20°C° 0 mm 4 m/s 758 mmHg 74%
    23:00 +20°C° 0 mm 4 m/s 758 mmHg 76%

    Demain, 16 Novembre, Samedi

    Heure Température Précipitation Vent Pression Humidité
    00:00 +19°C° 0 mm 3 m/s 758 mmHg 78%
    01:00 +19°C° 0 mm 3 m/s 758 mmHg 79%
    02:00 +18°C° 0 mm 3 m/s 758 mmHg 79%
    03:00 +18°C° 0 mm 3 m/s 757 mmHg 80%
    04:00 +18°C° 0 mm 3 m/s 758 mmHg 80%
    05:00 +18°C° 0 mm 3 m/s 758 mmHg 81%
    06:00 +19°C° 0 mm 2 m/s 758 mmHg 81%
    07:00 +21°C° 0 mm 2 m/s 758 mmHg 73%
    08:00 +24°C° 0 mm 3 m/s 758 mmHg 65%
    09:00 +26°C° 0 mm 3 m/s 759 mmHg 57%
    10:00 +27°C° 0 mm 3 m/s 758 mmHg 55%
    11:00 +27°C° 0 mm 3 m/s 758 mmHg 54%
    12:00 +28°C° 0 mm 4 m/s 758 mmHg 52%
    13:00 +27°C° 0 mm 4 m/s 757 mmHg 55%
    14:00 +27°C° 0 mm 5 m/s 757 mmHg 58%
    15:00 +26°C° 0 mm 5 m/s 757 mmHg 62%
    16:00 +25°C° 0 mm 5 m/s 757 mmHg 65%
    17:00 +23°C° 0 mm 5 m/s 757 mmHg 68%
    18:00 +22°C° 0 mm 4 m/s 757 mmHg 71%
    19:00 +21°C° 0 mm 4 m/s 758 mmHg 74%
    20:00 +20°C° 0 mm 4 m/s 759 mmHg 78%
    21:00 +19°C° 0 mm 4 m/s 760 mmHg 82%
    22:00 +19°C° 0 mm 3 m/s 760 mmHg 82%
    23:00 +18°C° 0 mm 3 m/s 760 mmHg 83%

    Après-demain, 17 Novembre, Dimanche

    Heure Température Précipitation Vent Pression Humidité
    00:00 +18°C° 0 mm 2 m/s 760 mmHg 84%
    01:00 +18°C° 0 mm 2 m/s 759 mmHg 84%
    02:00 +17°C° 0 mm 2 m/s 759 mmHg 85%
    03:00 +17°C° 0 mm 2 m/s 759 mmHg 85%
    04:00 +18°C° 0 mm 1 m/s 759 mmHg 84%
    05:00 +18°C° 0 mm 1 m/s 759 mmHg 83%
    06:00 +18°C° 0 mm 1 m/s 760 mmHg 82%
    07:00 +20°C° 0 mm 1 m/s 760 mmHg 73%
    08:00 +23°C° 0 mm 1 m/s 760 mmHg 63%
    09:00 +25°C° 0 mm 1 m/s 761 mmHg 53%
    10:00 +26°C° 0 mm 2 m/s 760 mmHg 51%
    11:00 +27°C° 0 mm 2 m/s 760 mmHg 49%
    12:00 +28°C° 0 mm 3 m/s 760 mmHg 47%
    13:00 +27°C° 0 mm 3 m/s 760 mmHg 50%
    14:00 +27°C° 0 mm 3 m/s 759 mmHg 53%
    15:00 +26°C° 0 mm 3 m/s 759 mmHg 56%
    16:00 +25°C° 0 mm 3 m/s 759 mmHg 60%
    17:00 +24°C° 0 mm 2 m/s 759 mmHg 65%
    18:00 +23°C° 0 mm 2 m/s 760 mmHg 70%
    19:00 +21°C° 0 mm 2 m/s 760 mmHg 74%
    20:00 +21°C° 0 mm 1 m/s 761 mmHg 79%
    21:00 +20°C° 0 mm 1 m/s 761 mmHg 83%
    22:00 +20°C° 0 mm 1 m/s 761 mmHg 84%
    23:00 +20°C° 0 mm 1 m/s 761 mmHg 85%

    18 Novembre, Lundi

    Heure Température Précipitation Vent Pression Humidité
    00:00 +19°C° 0 mm 1 m/s 761 mmHg 86%
    01:00 +19°C° 0 mm 1 m/s 761 mmHg 86%
    02:00 +19°C° 0 mm 1 m/s 761 mmHg 87%
    03:00 +19°C° 0 mm 1 m/s 761 mmHg 87%
    04:00 +19°C° 0 mm 1 m/s 761 mmHg 86%
    05:00 +19°C° 0 mm 1 m/s 762 mmHg 85%
    06:00 +19°C° 0 mm 1 m/s 762 mmHg 83%
    07:00 +21°C° 0 mm 1 m/s 762 mmHg 74%
    08:00 +23°C° 0 mm 1 m/s 762 mmHg 65%
    09:00 +26°C° 0 mm 1 m/s 762 mmHg 55%
    10:00 +27°C° 0 mm 2 m/s 762 mmHg 52%
    11:00 +27°C° 0 mm 3 m/s 762 mmHg 50%
    12:00 +28°C° 0 mm 3 m/s 762 mmHg 47%
    13:00 +28°C° 0 mm 3 m/s 761 mmHg 49%
    14:00 +28°C° 0 mm 4 m/s 761 mmHg 51%
    15:00 +28°C° 0 mm 4 m/s 760 mmHg 53%
    16:00 +26°C° 0 mm 4 m/s 760 mmHg 59%
    17:00 +25°C° 0 mm 3 m/s 761 mmHg 64%
    18:00 +24°C° 0 mm 3 m/s 761 mmHg 69%
    19:00 +23°C° 0 mm 2 m/s 761 mmHg 74%
    20:00 +21°C° 0 mm 2 m/s 762 mmHg 79%
    21:00 +19°C° 0 mm 2 m/s 763 mmHg 84%
    22:00 +19°C° 0 mm 2 m/s 763 mmHg 85%
    23:00 +19°C° 0 mm 2 m/s 763 mmHg 86%

    19 Novembre, Mardi

    Heure Température Précipitation Vent Pression Humidité
    00:00 +19°C° 0 mm 2 m/s 763 mmHg 86%
    01:00 +19°C° 0 mm 2 m/s 763 mmHg 85%
    02:00 +19°C° 0 mm 2 m/s 762 mmHg 83%
    03:00 +20°C° 0 mm 2 m/s 762 mmHg 82%
    04:00 +20°C° 0 mm 2 m/s 762 mmHg 82%
    05:00 +19°C° 0 mm 2 m/s 762 mmHg 82%
    06:00 +19°C° 0 mm 2 m/s 762 mmHg 82%
    07:00 +21°C° 0 mm 2 m/s 762 mmHg 74%
    08:00 +24°C° 0 mm 2 m/s 763 mmHg 66%
    09:00 +26°C° 0 mm 3 m/s 763 mmHg 58%
    10:00 +27°C° 0 mm 3 m/s 762 mmHg 56%
    11:00 +27°C° 0 mm 4 m/s 762 mmHg 54%
    12:00 +28°C° 0 mm 4 m/s 762 mmHg 52%
    13:00 +28°C° 0 mm 4 m/s 761 mmHg 53%
    14:00 +28°C° 0 mm 4 m/s 761 mmHg 55%
    15:00 +27°C° 0 mm 4 m/s 760 mmHg 57%
    16:00 +26°C° 0 mm 4 m/s 760 mmHg 61%
    17:00 +25°C° 0 mm 3 m/s 761 mmHg 65%
    18:00 +24°C° 0 mm 3 m/s 761 mmHg 69%
    19:00 +22°C° 0 mm 3 m/s 761 mmHg 74%
    20:00 +21°C° 0 mm 2 m/s 762 mmHg 79%
    21:00 +20°C° 0 mm 2 m/s 763 mmHg 84%
    22:00 +20°C° 0 mm 2 m/s 763 mmHg 83%
    23:00 +21°C° 0 mm 2 m/s 763 mmHg 82%

    20 Novembre, Mercredi

    Heure Température Précipitation Vent Pression Humidité
    00:00 +21°C° 0 mm 2 m/s 763 mmHg 81%
    01:00 +21°C° 0.1 mm 2 m/s 763 mmHg 83%
    02:00 +20°C° 0.1 mm 2 m/s 762 mmHg 85%
    03:00 +20°C° 0.1 mm 2 m/s 762 mmHg 88%
    04:00 +20°C° 0.2 mm 2 m/s 762 mmHg 89%
    05:00 +21°C° 0.2 mm 2 m/s 762 mmHg 89%
    06:00 +21°C° 0.2 mm 2 m/s 762 mmHg 90%
    07:00 +22°C° 0.2 mm 3 m/s 762 mmHg 89%
    08:00 +22°C° 0.2 mm 3 m/s 763 mmHg 87%
    09:00 +24°C° 0.2 mm 3 m/s 763 mmHg 85%
    10:00 +25°C° 0.1 mm 3 m/s 763 mmHg 82%
    11:00 +25°C° 0.1 mm 4 m/s 763 mmHg 78%
    12:00 +26°C° 0.1 mm 4 m/s 762 mmHg 75%
    13:00 +26°C° 0 mm 4 m/s 762 mmHg 72%
    14:00 +26°C° 0 mm 4 m/s 761 mmHg 69%
    15:00 +27°C° 0 mm 4 m/s 761 mmHg 67%
    16:00 +26°C° 0 mm 4 m/s 761 mmHg 71%
    17:00 +25°C° 0 mm 4 m/s 761 mmHg 75%
    18:00 +25°C° 0 mm 4 m/s 761 mmHg 78%
    19:00 +23°C° 0.2 mm 4 m/s 761 mmHg 83%
    20:00 +24°C° 0.2 mm 3 m/s 762 mmHg 87%
    21:00 +22°C° 0.2 mm 3 m/s 762 mmHg 92%
    22:00 +22°C° 0.3 mm 3 m/s 762 mmHg 92%
    23:00 +22°C° 0.3 mm 3 m/s 762 mmHg 93%
    Voir plus